TimeMDT,TemperatureF,Dew PointF,Humidity,Sea Level PressureIn,VisibilityMPH,Wind Direction,Wind SpeedMPH,Gust SpeedMPH,PrecipitationIn,Events,Conditions,WindDirDegrees,DateUTC
12:15 AM,28.4,21.2,74,30.48,10.0,Calm,Calm,-,N/A,,Clear,0,2014-04-30 06:15:00
12:35 AM,28.4,21.2,74,30.48,10.0,Calm,Calm,-,N/A,,Clear,0,2014-04-30 06:35:00
12:55 AM,28.4,21.2,74,30.48,10.0,Calm,Calm,-,N/A,,Clear,0,2014-04-30 06:55:00
1:15 AM,28.4,21.2,74,30.48,10.0,Calm,Calm,-,N/A,,Clear,0,2014-04-30 07:15:00
1:35 AM,26.6,21.2,80,30.48,10.0,Calm,Calm,-,N/A,,Clear,0,2014-04-30 07:35:00
1:55 AM,28.4,21.2,74,30.48,10.0,Calm,Calm,-,N/A,,Clear,0,2014-04-30 07:55:00
2:15 AM,28.4,21.2,74,30.48,10.0,Calm,Calm,-,N/A,,Clear,0,2014-04-30 08:15:00
2:35 AM,26.6,19.4,74,30.48,10.0,Calm,Calm,-,N/A,,Clear,0,2014-04-30 08:35:00
2:55 AM,28.4,19.4,69,30.48,10.0,Calm,Calm,-,N/A,,Clear,0,2014-04-30 08:55:00
3:15 AM,26.6,19.4,74,30.48,10.0,Calm,Calm,-,N/A,,Clear,0,2014-04-30 09:15:00
3:35 AM,26.6,19.4,74,30.48,10.0,Calm,Calm,-,N/A,,Clear,0,2014-04-30 09:35:00
3:55 AM,26.6,19.4,74,30.47,10.0,Calm,Calm,-,N/A,,Clear,0,2014-04-30 09:55:00
4:15 AM,26.6,19.4,74,30.48,10.0,Calm,Calm,-,N/A,,Clear,0,2014-04-30 10:15:00
4:35 AM,28.4,19.4,69,30.48,10.0,Calm,Calm,-,N/A,,Clear,0,2014-04-30 10:35:00
4:55 AM,24.8,19.4,80,30.48,10.0,Calm,Calm,-,N/A,,Clear,0,2014-04-30 10:55:00
5:15 AM,24.8,19.4,80,30.48,10.0,Calm,Calm,-,N/A,,Clear,0,2014-04-30 11:15:00
5:35 AM,23.0,19.4,86,30.48,10.0,Calm,Calm,-,N/A,,Clear,0,2014-04-30 11:35:00
5:55 AM,23.0,17.6,80,30.48,10.0,Calm,Calm,-,N/A,,Clear,0,2014-04-30 11:55:00
6:15 AM,23.0,17.6,80,30.48,10.0,Calm,Calm,-,N/A,,Clear,0,2014-04-30 12:15:00
6:35 AM,23.0,19.4,86,30.48,10.0,Calm,Calm,-,N/A,,Clear,0,2014-04-30 12:35:00
6:55 AM,23.0,17.6,80,30.48,10.0,Calm,Calm,-,N/A,,Clear,0,2014-04-30 12:55:00
7:15 AM,23.0,17.6,80,30.49,10.0,Calm,Calm,-,N/A,,Clear,0,2014-04-30 13:15:00
7:35 AM,26.6,19.4,74,30.50,10.0,Calm,Calm,-,N/A,,Clear,0,2014-04-30 13:35:00
7:55 AM,28.4,23.0,80,30.49,10.0,Calm,Calm,-,N/A,,Clear,0,2014-04-30 13:55:00
8:15 AM,32.0,21.2,64,30.49,10.0,Calm,Calm,-,N/A,,Clear,0,2014-04-30 14:15:00
8:35 AM,32.0,23.0,69,30.49,10.0,Calm,Calm,-,N/A,,Clear,0,2014-04-30 14:35:00
8:55 AM,32.0,23.0,69,30.49,10.0,Calm,Calm,-,N/A,,Clear,0,2014-04-30 14:55:00
9:15 AM,33.8,23.0,65,30.49,10.0,Calm,Calm,-,N/A,,Clear,0,2014-04-30 15:15:00
9:35 AM,35.6,23.0,60,30.48,10.0,NNW,4.6,-,N/A,,Clear,330,2014-04-30 15:35:00
9:55 AM,39.2,21.2,49,30.48,10.0,NNW,6.9,-,N/A,,Clear,340,2014-04-30 15:55:00
10:15 AM,41.0,19.4,42,30.48,10.0,NNW,11.5,16.1,N/A,,Clear,340,2014-04-30 16:15:00
10:35 AM,41.0,19.4,42,30.47,10.0,NNW,13.8,18.4,N/A,,Clear,330,2014-04-30 16:35:00
10:55 AM,42.8,17.6,36,30.47,10.0,NNW,10.4,-,N/A,,Clear,330,2014-04-30 16:55:00
11:15 AM,42.8,19.4,39,30.46,10.0,NW,12.7,17.3,N/A,,Clear,310,2014-04-30 17:15:00
11:35 AM,44.6,17.6,34,30.45,10.0,NNW,11.5,17.3,N/A,,Clear,330,2014-04-30 17:35:00
11:55 AM,44.6,15.8,31,30.45,10.0,NNW,10.4,-,N/A,,Clear,330,2014-04-30 17:55:00
12:15 PM,46.4,15.8,29,30.45,10.0,NNW,13.8,20.7,N/A,,Clear,330,2014-04-30 18:15:00
12:35 PM,46.4,14.0,27,30.44,10.0,NNW,8.1,18.4,N/A,,Clear,330,2014-04-30 18:35:00
12:55 PM,46.4,17.6,32,30.44,10.0,NW,16.1,19.6,N/A,,Clear,310,2014-04-30 18:55:00
1:15 PM,46.4,15.8,29,30.43,10.0,NNW,12.7,19.6,N/A,,Clear,330,2014-04-30 19:15:00
1:35 PM,46.4,14.0,27,30.42,10.0,North,16.1,24.2,N/A,,Clear,350,2014-04-30 19:35:00
1:55 PM,50.0,14.0,24,30.41,10.0,North,15.0,23.0,N/A,,Clear,350,2014-04-30 19:55:00
2:15 PM,50.0,10.4,20,30.40,10.0,North,8.1,23.0,N/A,,Clear,10,2014-04-30 20:15:00
2:35 PM,51.8,12.2,21,30.39,10.0,NNW,12.7,26.5,N/A,,Clear,330,2014-04-30 20:35:00
2:55 PM,51.8,14.0,22,30.39,10.0,NW,19.6,27.6,N/A,,Clear,320,2014-04-30 20:55:00
3:15 PM,51.8,12.2,21,30.39,10.0,NNW,16.1,28.8,N/A,,Clear,330,2014-04-30 21:15:00
3:55 PM,53.6,17.6,24,30.38,10.0,NNW,15.0,25.3,N/A,,Clear,330,2014-04-30 21:55:00
4:15 PM,51.8,14.0,22,30.38,10.0,NW,13.8,24.2,N/A,,Clear,320,2014-04-30 22:15:00
4:35 PM,51.8,15.8,24,30.37,10.0,NNW,10.4,25.3,N/A,,Clear,330,2014-04-30 22:35:00
4:55 PM,53.6,17.6,24,30.37,10.0,NW,15.0,21.9,N/A,,Clear,320,2014-04-30 22:55:00
5:15 PM,53.6,15.8,22,30.36,10.0,NNW,18.4,-,N/A,,Clear,330,2014-04-30 23:15:00
5:35 PM,53.6,17.6,24,30.36,10.0,NW,15.0,20.7,N/A,,Clear,320,2014-04-30 23:35:00
5:55 PM,53.6,17.6,24,30.36,10.0,NNW,15.0,19.6,N/A,,Clear,330,2014-04-30 23:55:00
6:15 PM,51.8,17.6,26,30.35,10.0,NW,12.7,21.9,N/A,,Clear,310,2014-05-01 00:15:00
6:35 PM,51.8,17.6,26,30.35,10.0,NNW,12.7,-,N/A,,Clear,330,2014-05-01 00:35:00
7:15 PM,51.8,17.6,26,30.34,10.0,NNW,13.8,-,N/A,,Clear,330,2014-05-01 01:15:00
7:35 PM,50.0,17.6,28,30.35,10.0,NW,9.2,-,N/A,,Clear,320,2014-05-01 01:35:00
7:55 PM,48.2,19.4,32,30.35,10.0,NW,11.5,-,N/A,,Clear,320,2014-05-01 01:55:00
8:15 PM,44.6,17.6,34,30.34,10.0,North,5.8,-,N/A,,Clear,350,2014-05-01 02:15:00
8:35 PM,42.8,17.6,36,30.34,10.0,NW,3.5,-,N/A,,Clear,320,2014-05-01 02:35:00
9:15 PM,41.0,17.6,39,30.35,10.0,ENE,4.6,-,N/A,,Clear,60,2014-05-01 03:15:00
9:35 PM,41.0,17.6,39,30.37,10.0,Calm,Calm,-,N/A,,Clear,0,2014-05-01 03:35:00
9:55 PM,37.4,19.4,48,30.38,10.0,Calm,Calm,-,N/A,,Clear,0,2014-05-01 03:55:00
10:15 PM,35.6,21.2,56,30.38,10.0,Calm,Calm,-,N/A,,Clear,0,2014-05-01 04:15:00
10:35 PM,33.8,21.2,60,30.38,10.0,ESE,3.5,-,N/A,,Clear,120,2014-05-01 04:35:00
10:55 PM,33.8,19.4,56,30.38,10.0,Calm,Calm,-,N/A,,Clear,0,2014-05-01 04:55:00
11:15 PM,32.0,21.2,64,30.38,10.0,Calm,Calm,-,N/A,,Clear,0,2014-05-01 05:15:00
11:35 PM,32.0,21.2,64,30.38,10.0,South,6.9,-,N/A,,Clear,190,2014-05-01 05:35:00
11:55 PM,32.0,21.2,64,30.38,10.0,Calm,Calm,-,N/A,,Clear,0,2014-05-01 05:55:00